Location: Graswijk
(52.9667°N, 6.5500°E)
Time: 12:04:53
(UTC+00:00)

ALOS 2 - Pass Details

Date: 15 May 2026
Orbit: 630 x 632 km, 97.9° (Epoch: 6 June)

Event Time Altitude Azimuth Distance (km) Brightness Sun altitude
Exits shadow 22:53:54 36° 171° (S) 1,010 3.1 -17.6°
Maximum altitude 22:55:41 83° 254° (WSW) 645 2.5 -17.6°
Drops below altitude 10° 23:00:07 10° 344° (NNW) 2,027 6.5 -17.7°
Sets 23:02:20 0° 345° (NNW) 2,939 7.7 -17.7°
